Location: Borovka
(49.7741°N, 14.5280°E)
Time: 02:06:01
(UTC+00:00)

BlueWalker 3 - Pass Details

Date: 27 January 2026
Orbit: 451 x 461 km, 53.2° (Epoch: 13 February)

Event Time Altitude Azimuth Distance (km) Brightness Sun altitude
Rises 18:40:30 0° 279° (W) 2,458 6.7 -27.6°
Reaches altitude 10° 18:42:42 10° 286° (WNW) 1,585 5.4 -28.0°
Enters shadow 18:44:12 22° 297° (WNW) 1,031 4.1 -28.2°
